time, Switch, Flow(0), Analog(2)
yyyy/mm/dd HH:MM:SS.fff, True=FILTERED|False=TOTAL, L/min, V
2023/06/13 11:00:04.375, True, 2.358, 0.142672
2023/06/13 11:00:04.880, True, 1.326, 0.143816
2023/06/13 11:00:05.384, True, 0.994, 0.145266
2023/06/13 11:00:05.887, True, 0.665, 0.143130
2023/06/13 11:00:06.384, True, 0.673, 0.143053
2023/06/13 11:00:06.888, True, 0.331, 0.144808
2023/06/13 11:00:07.392, True, 0.663, 0.143816
2023/06/13 11:00:07.887, True, 0.338, 0.144121
2023/06/13 11:00:08.392, True, 0.662, 0.144274
2023/06/13 11:00:08.896, True, 0.332, 0.144808
2023/06/13 11:00:09.400, True, 0.662, 0.144579
2023/06/13 11:00:09.896, True, 0.338, 0.143206
2023/06/13 11:00:10.400, True, 0.662, 0.143511
2023/06/13 11:00:10.904, True, 0.332, 0.143664
2023/06/13 11:00:11.400, True, 0.675, 0.144579
2023/06/13 11:00:11.904, True, 0.331, 0.144503
2023/06/13 11:00:12.400, True, 0.674, 0.143282
2023/06/13 11:00:12.904, True, 0.332, 0.144274
2023/06/13 11:00:13.408, True, 0.662, 0.144045
2023/06/13 11:00:13.904, True, 0.337, 0.143359
2023/06/13 11:00:14.408, True, 0.663, 0.143130
2023/06/13 11:00:14.911, True, 0.332, 0.145418
2023/06/13 11:00:15.408, True, 0.674, 0.143893
2023/06/13 11:00:15.912, True, 0.332, 0.141527
2023/06/13 11:00:16.416, True, 0.662, 0.143816
2023/06/13 11:00:16.920, True, 0.332, 0.146639
2023/06/13 11:00:17.416, True, 0.674, 0.144503
2023/06/13 11:00:17.920, True, 0.332, 0.144656
2023/06/13 11:00:18.423, True, 0.662, 0.144274
2023/06/13 11:00:18.920, True, 0.337, 0.145571
2023/06/13 11:00:19.424, True, 0.662, 0.144198
2023/06/13 11:00:19.928, True, 0.332, 0.144503
2023/06/13 11:00:20.424, True, 0.674, 0.145266
2023/06/13 11:00:20.928, True, 0.332, 0.142214
2023/06/13 11:00:21.431, True, 0.663, 0.142061
2023/06/13 11:00:21.928, True, 0.337, 0.145647
2023/06/13 11:00:22.432, True, 0.663, 0.144656
2023/06/13 11:00:22.928, True, 0.337, 0.143664
2023/06/13 11:00:23.432, True, 0.663, 0.144579
2023/06/13 11:00:23.936, True, 0.332, 0.143969
2023/06/13 11:00:24.432, True, 0.674, 0.142748
2023/06/13 11:00:24.935, True, 0.332, 0.144045
2023/06/13 11:00:25.440, True, 0.664, 0.143816
2023/06/13 11:00:25.936, True, 0.337, 0.144045
2023/06/13 11:00:26.440, True, 0.663, 0.144427
2023/06/13 11:00:26.944, True, 0.332, 0.143053
2023/06/13 11:00:27.440, True, 0.336, 0.144503
2023/06/13 11:00:27.944, True, 0.663, 0.144350
2023/06/13 11:00:28.448, True, 0.332, 0.144350
2023/06/13 11:00:28.944, True, 0.337, 0.143969
2023/06/13 11:00:29.448, True, 0.663, 0.142596
2023/06/13 11:00:29.952, True, 0.332, 0.143359
2023/06/13 11:00:30.448, True, 0.674, 0.144732
2023/06/13 11:00:30.952, True, 0.332, 0.142214
2023/06/13 11:00:31.455, True, 0.663, 0.143206
2023/06/13 11:00:31.952, True, 0.337, 0.142977
2023/06/13 11:00:32.455, True, 0.332, 0.145266
2023/06/13 11:00:32.960, True, 0.663, 0.142824
2023/06/13 11:00:33.456, True, 0.337, 0.144045
2023/06/13 11:00:33.960, True, 0.663, 0.144121
2023/06/13 11:00:34.464, True, 0.332, 0.145495
2023/06/13 11:00:34.960, True, 0.674, 0.142748
2023/06/13 11:00:35.464, True, 0.332, 0.142519
2023/06/13 11:00:35.968, True, 0.664, 0.145266
2023/06/13 11:00:36.464, True, 0.337, 0.146105
2023/06/13 11:00:36.968, True, 0.663, 0.145190
2023/06/13 11:00:37.472, True, 0.332, 0.142596
2023/06/13 11:00:37.968, True, 0.674, 0.146410
2023/06/13 11:00:38.472, True, 0.332, 0.147097
2023/06/13 11:00:38.976, True, 0.664, 0.146410
2023/06/13 11:00:39.472, True, 0.337, 0.144274
2023/06/13 11:00:39.976, True, 0.663, 0.145037
2023/06/13 11:00:40.480, True, 0.332, 0.142672
2023/06/13 11:00:40.984, True, 0.332, 0.144427
2023/06/13 11:00:41.480, True, 0.674, 0.143587
2023/06/13 11:00:41.984, True, 0.332, 0.143969
2023/06/13 11:00:42.488, True, 0.663, 0.143359
2023/06/13 11:00:42.983, True, 0.337, 0.145800
2023/06/13 11:00:43.488, True, 0.663, 0.142214
2023/06/13 11:00:43.992, True, 0.332, 0.142367
2023/06/13 11:00:44.488, True, 0.674, 0.143893
2023/06/13 11:00:44.992, True, 0.332, 0.144121
2023/06/13 11:00:45.496, True, 0.662, 0.144045
2023/06/13 11:00:45.991, True, 0.337, 0.143435
2023/06/13 11:00:46.496, True, 0.664, 0.145342
2023/06/13 11:00:46.000, True, 0.331, 0.144274
2023/06/13 11:00:47.503, True, 0.663, 0.145266
2023/06/13 11:00:47.999, True, 0.337, 0.143435
2023/06/13 11:00:48.504, True, 0.332, 0.143511
2023/06/13 11:00:49.008, True, 0.663, 0.144427
2023/06/13 11:00:49.503, True, 0.337, 0.143206
2023/06/13 11:00:50.008, True, 0.332, 0.143893
2023/06/13 11:00:50.512, True, 0.663, 0.143740
2023/06/13 11:00:51.008, True, 0.337, 0.142519
2023/06/13 11:00:51.512, True, 0.663, 0.144579
2023/06/13 11:00:52.016, True, 0.332, 0.143740
2023/06/13 11:00:52.520, True, 0.663, 0.145418
2023/06/13 11:00:53.015, True, 0.337, 0.144884
2023/06/13 11:00:53.520, True, 0.663, 0.142977
2023/06/13 11:00:54.023, True, 0.332, 0.144045
2023/06/13 11:00:54.520, True, 0.337, 0.145113
2023/06/13 11:00:55.024, True, 0.663, 0.143435
2023/06/13 11:00:55.528, True, 0.332, 0.143206
2023/06/13 11:00:56.023, True, 0.674, 0.142672
2023/06/13 11:00:56.528, True, 0.332, 0.141985
2023/06/13 11:00:57.032, True, 0.663, 0.144045
2023/06/13 11:00:57.528, True, 0.337, 0.143816
2023/06/13 11:00:58.032, True, 0.663, 0.142672
2023/06/13 11:00:58.536, True, 0.332, 0.145647
2023/06/13 11:00:59.031, True, 0.337, 0.145876
2023/06/13 11:00:59.535, True, 0.664, 0.141833
2023/06/13 11:01:00.039, True, 0.332, 0.144961
2023/06/13 11:01:00.536, True, 0.673, 0.144732
2023/06/13 11:01:01.039, True, 0.332, 0.142596
2023/06/13 11:01:01.544, True, 0.663, 0.142672
2023/06/13 11:01:02.040, True, 0.337, 0.145495
2023/06/13 11:01:02.544, True, 0.663, 0.144961
2023/06/13 11:01:03.047, True, 0.332, 0.145342
2023/06/13 11:01:03.552, True, 0.663, 0.143969
2023/06/13 11:01:04.048, True, 0.337, 0.145190
2023/06/13 11:01:04.552, True, 0.332, 0.144198
2023/06/13 11:01:05.056, True, 0.332, 0.144350
2023/06/13 11:01:05.552, True, 0.674, 0.142748
2023/06/13 11:01:06.056, True, 0.332, 0.145953
2023/06/13 11:01:06.559, True, 0.663, 0.143053
2023/06/13 11:01:07.055, True, 0.337, 0.143359
2023/06/13 11:01:07.560, True, 0.332, 0.146181
2023/06/13 11:01:08.063, True, 0.663, 0.142519
2023/06/13 11:01:08.560, True, 0.337, 0.143893
2023/06/13 11:01:09.064, True, 0.664, 0.144961
2023/06/13 11:01:09.568, True, 0.331, 0.143740
2023/06/13 11:01:10.064, True, 0.337, 0.144503
2023/06/13 11:01:10.568, True, 0.663, 0.143740
2023/06/13 11:01:11.072, True, 0.332, 0.144198
2023/06/13 11:01:11.567, True, 0.674, 0.143511
2023/06/13 11:01:12.071, True, 0.332, 0.143587
2023/06/13 11:01:12.575, True, 0.332, 0.144198
2023/06/13 11:01:13.072, True, 0.675, 0.143893
2023/06/13 11:01:13.575, True, 0.331, 0.144427
2023/06/13 11:01:14.080, True, 0.332, 0.145037
2023/06/13 11:01:14.576, True, 0.674, 0.143893
2023/06/13 11:01:15.080, True, 0.332, 0.143359
2023/06/13 11:01:15.575, True, 0.674, 0.146639
2023/06/13 11:01:16.080, True, 0.332, 0.144121
2023/06/13 11:01:16.583, True, 0.663, 0.143816
2023/06/13 11:01:17.087, True, 0.332, 0.145266
2023/06/13 11:01:17.583, True, 0.674, 0.143435
2023/06/13 11:01:18.087, True, 0.332, 0.145037
2023/06/13 11:01:18.591, True, 0.663, 0.143893
2023/06/13 11:01:19.087, True, 0.337, 0.143740
2023/06/13 11:01:19.592, True, 0.332, 0.144732
2023/06/13 11:01:20.088, True, 0.674, 0.143969
2023/06/13 11:01:20.592, True, 0.332, 0.144198
2023/06/13 11:01:21.095, True, 0.664, 0.144198
2023/06/13 11:01:21.592, True, 0.337, 0.142596
2023/06/13 11:01:22.095, True, 0.663, 0.145953
2023/06/13 11:01:22.599, True, 0.332, 0.144045
2023/06/13 11:01:23.096, True, 0.337, 0.143511
2023/06/13 11:01:23.599, True, 0.663, 0.145418
2023/06/13 11:01:24.103, True, 0.332, 0.142596
2023/06/13 11:01:24.600, True, 0.674, 0.143740
2023/06/13 11:01:25.103, True, 0.332, 0.144732
2023/06/13 11:01:25.607, True, 0.663, 0.142367
2023/06/13 11:01:26.104, True, 0.337, 0.143664
2023/06/13 11:01:26.607, True, 0.663, 0.144121
2023/06/13 11:01:27.111, True, 0.332, 0.142290
2023/06/13 11:01:27.607, True, 0.337, 0.142596
2023/06/13 11:01:28.111, True, 0.663, 0.142824
2023/06/13 11:01:28.615, True, 0.332, 0.144121
2023/06/13 11:01:29.111, True, 0.674, 0.146181
2023/06/13 11:01:29.615, True, 0.332, 0.145037
2023/06/13 11:01:30.120, True, 0.332, 0.144427
2023/06/13 11:01:30.624, True, 0.663, 0.144198
2023/06/13 11:01:31.119, True, 0.337, 0.143893
2023/06/13 11:01:31.624, True, 0.664, 0.144579
2023/06/13 11:01:32.127, True, 0.331, 0.143969
2023/06/13 11:01:32.623, True, 0.674, 0.145266
2023/06/13 11:01:33.127, True, 0.332, 0.143359
2023/06/13 11:01:33.632, True, 0.332, 0.145571
2023/06/13 11:01:34.128, True, 0.672, 0.144121
2023/06/13 11:01:34.632, True, 0.332, 0.145800
2023/06/13 11:01:35.128, True, 0.337, 0.145876
2023/06/13 11:01:35.632, True, 0.662, 0.141146
2023/06/13 11:01:36.135, True, 0.332, 0.142672
2023/06/13 11:01:36.639, True, 0.664, 0.145571
2023/06/13 11:01:37.135, True, 0.337, 0.145800
2023/06/13 11:01:37.639, True, 0.662, 0.141909
2023/06/13 11:01:38.143, True, 0.331, 0.146029
2023/06/13 11:01:38.639, True, 0.674, 0.140917
2023/06/13 11:01:39.143, True, 0.331, 0.145342
2023/06/13 11:01:39.647, True, 0.332, 0.145647
2023/06/13 11:01:40.143, True, 0.675, 0.144808
2023/06/13 11:01:40.648, True, 0.331, 0.144884
2023/06/13 11:01:41.143, True, 0.674, 0.144503
2023/06/13 11:01:41.648, True, 0.331, 0.145724
2023/06/13 11:01:42.151, True, 0.332, 0.144961
2023/06/13 11:01:42.656, True, 0.665, 0.145571
2023/06/13 11:01:43.151, True, 0.336, 0.143587
2023/06/13 11:01:43.655, True, 0.664, 0.144198
2023/06/13 11:01:44.152, True, 0.337, 0.146105
2023/06/13 11:01:44.656, True, 0.332, 0.145342
2023/06/13 11:01:45.159, True, 0.662, 0.146334
2023/06/13 11:01:45.655, True, 0.337, 0.145953
2023/06/13 11:01:46.159, True, 0.663, 0.146181
2023/06/13 11:01:46.663, True, 0.332, 0.146258
2023/06/13 11:01:47.159, True, 0.337, 0.145190
2023/06/13 11:01:47.663, True, 0.664, 0.147326
2023/06/13 11:01:48.167, True, 0.331, 0.145113
2023/06/13 11:01:48.663, True, 0.337, 0.147326
2023/06/13 11:01:49.167, True, 0.663, 0.144656
2023/06/13 11:01:49.671, True, 0.332, 0.144427
2023/06/13 11:01:50.167, True, 0.674, 0.146868
2023/06/13 11:01:50.671, True, 0.332, 0.145724
2023/06/13 11:01:51.175, True, 0.332, 0.145266
2023/06/13 11:01:51.671, True, 0.674, 0.145342
2023/06/13 11:01:52.175, True, 0.332, 0.146029
2023/06/13 11:01:52.679, True, 0.332, 0.145342
2023/06/13 11:01:53.175, True, 0.674, 0.143893
2023/06/13 11:01:53.679, True, 0.332, 0.147402
2023/06/13 11:01:54.183, True, 0.663, 0.144884
2023/06/13 11:01:54.679, True, 0.337, 0.147097
2023/06/13 11:01:55.183, True, 0.332, 0.145724
2023/06/13 11:01:55.687, True, 0.663, 0.146334
2023/06/13 11:01:56.183, True, 0.338, 0.146792
2023/06/13 11:01:56.687, True, 0.662, 0.147631
2023/06/13 11:01:57.191, True, 0.332, 0.145724
2023/06/13 11:01:57.687, True, 0.336, 0.146792
2023/06/13 11:01:58.191, True, 0.663, 0.150530
2023/06/13 11:01:58.695, True, 0.332, 0.148470
2023/06/13 11:01:59.191, True, 0.674, 0.144884
2023/06/13 11:01:59.695, True, 0.332, 0.148013
2023/06/13 11:02:00.199, True, 0.332, 0.147250
2023/06/13 11:02:00.703, True, 0.664, 0.146792
2023/06/13 11:02:01.199, True, 0.336, 0.149004
2023/06/13 11:02:01.703, True, 0.663, 0.148089
2023/06/13 11:02:02.207, True, 0.332, 0.147631
2023/06/13 11:02:02.703, True, 0.674, 0.148699
2023/06/13 11:02:03.208, True, 0.331, 0.148699
2023/06/13 11:02:03.711, True, 0.332, 0.149157
2023/06/13 11:02:04.207, True, 0.674, 0.147021
2023/06/13 11:02:04.712, True, 0.332, 0.148470
2023/06/13 11:02:05.215, True, 0.663, 0.148089
2023/06/13 11:02:05.712, True, 0.337, 0.147250
2023/06/13 11:02:06.215, True, 0.331, 0.148165
2023/06/13 11:02:06.719, True, 0.332, 0.147631
2023/06/13 11:02:07.216, True, 0.674, 0.145190
2023/06/13 11:02:07.719, True, 0.332, 0.146868
2023/06/13 11:02:08.215, True, 0.674, 0.148699
2023/06/13 11:02:08.719, True, 0.332, 0.146258
2023/06/13 11:02:09.223, True, 0.332, 0.147707
2023/06/13 11:02:09.727, True, 0.663, 0.147326
2023/06/13 11:02:10.223, True, 0.337, 0.147402
2023/06/13 11:02:10.727, True, 0.332, 0.147478
2023/06/13 11:02:11.232, True, 0.663, 0.147478
2023/06/13 11:02:11.727, True, 0.337, 0.147250
2023/06/13 11:02:12.232, True, 0.332, 0.149157
2023/06/13 11:02:12.736, True, 0.664, 0.149538
2023/06/13 11:02:13.232, True, 0.337, 0.149691
2023/06/13 11:02:13.735, True, 0.332, 0.147173
2023/06/13 11:02:14.239, True, 0.665, 0.149615
2023/06/13 11:02:14.735, True, 0.336, 0.149233
2023/06/13 11:02:15.239, True, 0.663, 0.149767
2023/06/13 11:02:15.735, True, 0.337, 0.149004
2023/06/13 11:02:16.239, True, 0.332, 0.149996
2023/06/13 11:02:16.743, True, 0.663, 0.149004
2023/06/13 11:02:17.239, True, 0.337, 0.149157
2023/06/13 11:02:17.744, True, 0.332, 0.149004
2023/06/13 11:02:18.247, True, 0.663, 0.150301
2023/06/13 11:02:18.743, True, 0.337, 0.149233
2023/06/13 11:02:19.247, True, 0.663, 0.149310
2023/06/13 11:02:19.751, True, 0.332, 0.149386
2023/06/13 11:02:20.247, True, 0.337, 0.149996
2023/06/13 11:02:20.751, True, 0.663, 0.151522
2023/06/13 11:02:21.255, True, 0.332, 0.151141
2023/06/13 11:02:21.751, True, 0.337, 0.150759
2023/06/13 11:02:22.255, True, 0.332, 0.150607
2023/06/13 11:02:22.759, True, 0.663, 0.150607
2023/06/13 11:02:23.255, True, 0.337, 0.152056
2023/06/13 11:02:23.760, True, 0.332, 0.151522
2023/06/13 11:02:24.263, True, 0.663, 0.150454
2023/06/13 11:02:24.759, True, 0.337, 0.150912
2023/06/13 11:02:25.263, True, 0.332, 0.152819
2023/06/13 11:02:25.767, True, 0.663, 0.152895
2023/06/13 11:02:26.263, True, 0.338, 0.150607
2023/06/13 11:02:26.767, True, 0.662, 0.151904
2023/06/13 11:02:27.271, True, 0.332, 0.153277
2023/06/13 11:02:27.767, True, 0.337, 0.153506
2023/06/13 11:02:28.271, True, 0.663, 0.152056
2023/06/13 11:02:28.775, True, 0.332, 0.152209
2023/06/13 11:02:29.271, True, 0.337, 0.149844
2023/06/13 11:02:29.775, True, 0.663, 0.151446
2023/06/13 11:02:30.279, True, 0.332, 0.153048
2023/06/13 11:02:30.775, True, 0.337, 0.152056
2023/06/13 11:02:31.279, True, 0.664, 0.151446
2023/06/13 11:02:31.783, True, 0.331, 0.153353
2023/06/13 11:02:32.287, True, 0.663, 0.154574
2023/06/13 11:02:32.782, True, 0.337, 0.151827
2023/06/13 11:02:33.287, True, 0.332, 0.152743
2023/06/13 11:02:33.792, True, 0.663, 0.152514
2023/06/13 11:02:34.287, True, 0.337, 0.153506
2023/06/13 11:02:34.791, True, 0.332, 0.151751
2023/06/13 11:02:35.295, True, 0.663, 0.154574
2023/06/13 11:02:35.791, True, 0.337, 0.155566
2023/06/13 11:02:36.295, True, 0.664, 0.154116
2023/06/13 11:02:36.799, True, 0.332, 0.152590
2023/06/13 11:02:37.295, True, 0.336, 0.153124
2023/06/13 11:02:37.799, True, 0.663, 0.153048
2023/06/13 11:02:38.303, True, 0.332, 0.153506
2023/06/13 11:02:38.799, True, 0.674, 0.153124
2023/06/13 11:02:39.303, True, 0.332, 0.153124
2023/06/13 11:02:39.807, True, 0.332, 0.154498
2023/06/13 11:02:40.303, True, 0.674, 0.153201
2023/06/13 11:02:40.807, True, 0.332, 0.154269
2023/06/13 11:02:41.311, True, 0.663, 0.152514
2023/06/13 11:02:41.807, True, 0.337, 0.154574
2023/06/13 11:02:42.311, True, 0.332, 0.153887
2023/06/13 11:02:42.815, True, 0.663, 0.154726
2023/06/13 11:02:43.311, True, 0.337, 0.154116
2023/06/13 11:02:43.815, True, 0.663, 0.153735
2023/06/13 11:02:44.319, True, 0.332, 0.155032
2023/06/13 11:02:44.815, True, 0.336, 0.155108
2023/06/13 11:02:45.319, True, 0.332, 0.155108
2023/06/13 11:02:45.823, True, 0.662, 0.151064
2023/06/13 11:02:46.319, True, 0.337, 0.153658
2023/06/13 11:02:46.823, True, 0.663, 0.152361
2023/06/13 11:02:47.327, True, 0.332, 0.153887
2023/06/13 11:02:47.823, True, 0.337, 0.153124
2023/06/13 11:02:48.327, True, 0.663, 0.155489
2023/06/13 11:02:48.831, True, 0.332, 0.153735
2023/06/13 11:02:49.327, True, 0.337, 0.154498
2023/06/13 11:02:49.831, True, 0.663, 0.154498
2023/06/13 11:02:50.335, True, 0.332, 0.153277
2023/06/13 11:02:50.831, True, 0.674, 0.154955
2023/06/13 11:02:51.334, True, 0.332, 0.154650
2023/06/13 11:02:51.839, True, 0.332, 0.152743
2023/06/13 11:02:52.335, True, 0.337, 0.155566
2023/06/13 11:02:52.839, True, 0.663, 0.157778
2023/06/13 11:02:53.343, True, 0.332, 0.154574
2023/06/13 11:02:53.839, True, 0.337, 0.153353
2023/06/13 11:02:54.343, True, 0.662, 0.154803
2023/06/13 11:02:54.839, True, 0.337, 0.155642
2023/06/13 11:02:55.343, True, 0.332, 0.154574
2023/06/13 11:02:55.847, True, 0.663, 0.155566
2023/06/13 11:02:56.351, True, 0.332, 0.154574
2023/06/13 11:02:56.846, True, 0.675, 0.154726
2023/06/13 11:02:57.351, True, 0.331, 0.153048
2023/06/13 11:02:57.854, True, 0.332, 0.151064
2023/06/13 11:02:58.359, True, 0.662, 0.153124
2023/06/13 11:02:58.855, True, 0.337, 0.154879
2023/06/13 11:02:59.359, True, 0.664, 0.155108
2023/06/13 11:02:59.863, True, 0.332, 0.154498
2023/06/13 11:03:00.359, True, 0.336, 0.157015
2023/06/13 11:03:00.863, True, 0.664, 0.153429
2023/06/13 11:03:01.367, True, 0.331, 0.152438
2023/06/13 11:03:01.863, True, 0.337, 0.155108
2023/06/13 11:03:02.367, True, 0.331, 0.156558
2023/06/13 11:03:02.871, True, 0.664, 0.155795
2023/06/13 11:03:03.367, True, 0.336, 0.156634
2023/06/13 11:03:03.871, True, 0.332, 0.155642
2023/06/13 11:03:04.375, True, 0.664, 0.154345
2023/06/13 11:03:04.871, True, 0.337, 0.156481
2023/06/13 11:03:05.375, True, 0.331, 0.154650
2023/06/13 11:03:05.879, True, 0.664, 0.156176
2023/06/13 11:03:06.375, True, 0.337, 0.154116
2023/06/13 11:03:06.879, True, 0.664, 0.157626
2023/06/13 11:03:07.383, True, 0.331, 0.154955
2023/06/13 11:03:07.879, True, 0.337, 0.156634
2023/06/13 11:03:08.383, True, 0.664, 0.156634
2023/06/13 11:03:08.887, True, 0.331, 0.154116
2023/06/13 11:03:09.383, True, 0.337, 0.156863
2023/06/13 11:03:09.887, True, 0.664, 0.155184
2023/06/13 11:03:10.391, True, 0.331, 0.155642
2023/06/13 11:03:10.895, True, 0.332, 0.155032
2023/06/13 11:03:11.391, True, 0.674, 0.156710
2023/06/13 11:03:11.895, True, 0.332, 0.156558
2023/06/13 11:03:12.399, True, 0.332, 0.155566
2023/06/13 11:03:12.895, True, 0.674, 0.154879
2023/06/13 11:03:13.399, True, 0.331, 0.153964
2023/06/13 11:03:13.903, True, 0.664, 0.154040
2023/06/13 11:03:14.399, True, 0.337, 0.154650
2023/06/13 11:03:14.903, True, 0.331, 0.158846
2023/06/13 11:03:15.399, True, 0.675, 0.156481
2023/06/13 11:03:15.903, True, 0.331, 0.156863
2023/06/13 11:03:16.407, True, 0.332, 0.156710
2023/06/13 11:03:16.911, True, 0.664, 0.154726
2023/06/13 11:03:17.407, True, 0.336, 0.158007
2023/06/13 11:03:17.911, True, 0.332, 0.155718
2023/06/13 11:03:18.415, True, 0.663, 0.157931
2023/06/13 11:03:18.911, True, 0.337, 0.153201
2023/06/13 11:03:19.415, True, 0.332, 0.155795
2023/06/13 11:03:19.919, True, 0.663, 0.156939
2023/06/13 11:03:20.415, True, 0.337, 0.154803
2023/06/13 11:03:20.919, True, 0.664, 0.154192
2023/06/13 11:03:21.423, True, 0.331, 0.153277
2023/06/13 11:03:21.919, True, 0.337, 0.157702
2023/06/13 11:03:22.423, True, 0.663, 0.155795
2023/06/13 11:03:22.927, True, 0.332, 0.160678
2023/06/13 11:03:23.423, True, 0.337, 0.154040
2023/06/13 11:03:23.927, True, 0.663, 0.156176
2023/06/13 11:03:24.431, True, 0.332, 0.154803
2023/06/13 11:03:24.927, True, 0.337, 0.154879
2023/06/13 11:03:25.431, True, 0.332, 0.157778
2023/06/13 11:03:25.935, True, 0.662, 0.155032
2023/06/13 11:03:26.431, True, 0.337, 0.157015
2023/06/13 11:03:26.935, True, 0.664, 0.156634
2023/06/13 11:03:27.439, True, 0.331, 0.155718
2023/06/13 11:03:27.935, True, 0.337, 0.156405
2023/06/13 11:03:28.439, True, 0.663, 0.156481
2023/06/13 11:03:28.943, True, 0.332, 0.155871
2023/06/13 11:03:29.439, True, 0.337, 0.154803
2023/06/13 11:03:29.943, True, 0.664, 0.155795
2023/06/13 11:03:30.447, True, 0.331, 0.155566
2023/06/13 11:03:30.943, True, 0.337, 0.155032
2023/06/13 11:03:31.447, True, 0.332, 0.155642
2023/06/13 11:03:31.951, True, 0.664, 0.154192
2023/06/13 11:03:32.447, True, 0.337, 0.154879
2023/06/13 11:03:32.951, True, 0.664, 0.154650
2023/06/13 11:03:33.455, True, 0.331, 0.154879
2023/06/13 11:03:33.951, True, 0.337, 0.152056
2023/06/13 11:03:34.455, True, 0.663, 0.154269
2023/06/13 11:03:34.959, True, 0.332, 0.155032
2023/06/13 11:03:35.455, True, 0.337, 0.155642
2023/06/13 11:03:35.959, True, 0.664, 0.154040
2023/06/13 11:03:36.463, True, 0.331, 0.157397
2023/06/13 11:03:36.959, True, 0.337, 0.154116
2023/06/13 11:03:37.463, True, 0.663, 0.154879
2023/06/13 11:03:37.967, True, 0.332, 0.156939
2023/06/13 11:03:38.471, True, 0.332, 0.154879
2023/06/13 11:03:38.967, True, 0.674, 0.155718
2023/06/13 11:03:39.471, True, 0.332, 0.155642
2023/06/13 11:03:39.975, True, 0.663, 0.155032
2023/06/13 11:03:40.471, True, 0.337, 0.154574
2023/06/13 11:03:40.975, True, 0.332, 0.156786
2023/06/13 11:03:41.471, True, 0.673, 0.155337
2023/06/13 11:03:41.975, True, 0.332, 0.158007
2023/06/13 11:03:42.479, True, 0.332, 0.156252
2023/06/13 11:03:42.975, True, 0.674, 0.156558
2023/06/13 11:03:43.479, True, 0.332, 0.154345
2023/06/13 11:03:43.983, True, 0.332, 0.156023
2023/06/13 11:03:44.479, True, 0.674, 0.153582
2023/06/13 11:03:44.983, True, 0.332, 0.155489
2023/06/13 11:03:45.487, True, 0.663, 0.156329
2023/06/13 11:03:45.983, True, 0.337, 0.157244
2023/06/13 11:03:46.487, True, 0.331, 0.153582
2023/06/13 11:03:46.991, True, 0.332, 0.155489
2023/06/13 11:03:47.487, True, 0.674, 0.155718
2023/06/13 11:03:47.991, True, 0.332, 0.155566
2023/06/13 11:03:48.495, True, 0.332, 0.156176
2023/06/13 11:03:48.991, True, 0.673, 0.155718
2023/06/13 11:03:49.495, True, 0.332, 0.154345
2023/06/13 11:03:49.999, True, 0.332, 0.156023
2023/06/13 11:03:50.495, True, 0.675, 0.155947
2023/06/13 11:03:50.999, True, 0.331, 0.155337
2023/06/13 11:03:51.503, True, 0.663, 0.156023
2023/06/13 11:03:51.999, True, 0.337, 0.155108
2023/06/13 11:03:52.503, True, 0.332, 0.156405
2023/06/13 11:03:53.007, True, 0.663, 0.155795
2023/06/13 11:03:53.511, True, 0.332, 0.155489
2023/06/13 11:03:54.007, True, 0.337, 0.155718
2023/06/13 11:03:54.511, True, 0.332, 0.154726
2023/06/13 11:03:55.007, True, 0.675, 0.155718
2023/06/13 11:03:55.511, True, 0.331, 0.154879
2023/06/13 11:03:56.015, True, 0.663, 0.154116
2023/06/13 11:03:56.519, True, 0.332, 0.156252
2023/06/13 11:03:57.015, True, 0.674, 0.153582
2023/06/13 11:03:57.519, True, 0.332, 0.154269
2023/06/13 11:03:58.023, True, 0.332, 0.152743
2023/06/13 11:03:58.519, True, 0.674, 0.155413
2023/06/13 11:03:59.023, True, 0.332, 0.154345
2023/06/13 11:03:59.527, True, 0.332, 0.156329
2023/06/13 11:04:00.022, True, 0.674, 0.155489
2023/06/13 11:04:00.527, True, 0.332, 0.154879
2023/06/13 11:04:01.023, True, 0.337, 0.156176
2023/06/13 11:04:01.527, True, 0.663, 0.155642
2023/06/13 11:04:02.031, True, 0.332, 0.157549
2023/06/13 11:04:02.527, True, 0.337, 0.154650
2023/06/13 11:04:03.031, True, 0.663, 0.155566
2023/06/13 11:04:03.535, True, 0.332, 0.155566
2023/06/13 11:04:04.031, True, 0.337, 0.151904
2023/06/13 11:04:04.535, True, 0.663, 0.155108
2023/06/13 11:04:05.039, True, 0.332, 0.154421
2023/06/13 11:04:05.535, True, 0.673, 0.155184
2023/06/13 11:04:06.039, True, 0.332, 0.155337
2023/06/13 11:04:06.543, True, 0.663, 0.155337
2023/06/13 11:04:07.039, True, 0.337, 0.156100
2023/06/13 11:04:07.543, True, 0.332, 0.156786
2023/06/13 11:04:08.047, True, 0.332, 0.154421
2023/06/13 11:04:08.543, True, 0.674, 0.154269
2023/06/13 11:04:09.047, True, 0.332, 0.156558
2023/06/13 11:04:09.551, True, 0.663, 0.155337
2023/06/13 11:04:10.047, True, 0.337, 0.152819
2023/06/13 11:04:10.551, True, 0.332, 0.156710
2023/06/13 11:04:11.055, True, 0.663, 0.154726
2023/06/13 11:04:11.550, True, 0.337, 0.156405
2023/06/13 11:04:12.055, True, 0.332, 0.156481
2023/06/13 11:04:12.559, True, 0.663, 0.153887
2023/06/13 11:04:13.063, True, 0.332, 0.155795
2023/06/13 11:04:13.559, True, 0.337, 0.153964